Time,TemperatureF,DewpointF,PressureIn,WindDirection,WindDirectionDegrees,WindSpeedMPH,WindSpeedGustMPH,Humidity,HourlyPrecipIn,Conditions,Clouds,dailyrainin,SoftwareType,DateUTC
2013-08-19 00:01:00,65.1,63.9,30.05,SW,229,0.0,0.0,96,0.00,CLR,,0.00,WeatherDisplay:10.37,2013-08-19 05:01:00,
2013-08-19 00:06:00,65.1,63.9,30.05,SW,229,0.0,0.0,96,0.00,CLR,,0.00,WeatherDisplay:10.37,2013-08-19 05:06:00,
2013-08-19 00:11:00,65.1,63.9,30.05,SW,229,0.0,0.0,96,0.00,CLR,,0.00,WeatherDisplay:10.37,2013-08-19 05:11:00,
2013-08-19 00:16:00,65.1,63.9,30.05,SW,229,0.0,0.0,96,0.00,CLR,,0.00,WeatherDisplay:10.37,2013-08-19 05:16:00,
2013-08-19 00:21:00,65.0,63.8,30.05,SW,229,0.0,0.0,96,0.00,CLR,,0.00,WeatherDisplay:10.37,2013-08-19 05:21:00,
2013-08-19 00:26:00,64.9,63.7,30.05,SW,229,0.0,0.0,96,0.00,CLR,,0.00,WeatherDisplay:10.37,2013-08-19 05:26:00,
2013-08-19 00:31:00,64.8,63.6,30.05,SW,229,0.0,0.0,96,0.00,CLR,,0.00,WeatherDisplay:10.37,2013-08-19 05:31:00,
2013-08-19 00:36:00,64.7,63.5,30.05,SW,229,0.0,0.0,96,0.00,CLR,,0.00,WeatherDisplay:10.37,2013-08-19 05:36:00,
2013-08-19 00:41:00,64.7,63.5,30.05,SW,229,0.0,0.0,96,0.00,CLR,,0.00,WeatherDisplay:10.37,2013-08-19 05:41:00,
2013-08-19 00:46:00,64.6,63.4,30.05,SW,229,0.0,0.0,96,0.00,CLR,,0.00,WeatherDisplay:10.37,2013-08-19 05:46:00,
2013-08-19 00:51:00,64.5,63.3,30.05,SW,229,0.0,0.0,96,0.00,CLR,,0.00,WeatherDisplay:10.37,2013-08-19 05:51:00,
2013-08-19 00:56:00,64.5,63.3,30.04,SW,229,0.0,0.0,96,0.00,CLR,,0.00,WeatherDisplay:10.37,2013-08-19 05:56:00,
2013-08-19 01:01:00,64.5,63.3,30.04,SW,229,0.0,0.0,96,0.00,CLR,,0.00,WeatherDisplay:10.37,2013-08-19 06:01:00,
2013-08-19 01:06:00,64.4,63.2,30.04,SW,229,0.0,0.0,96,0.00,CLR,,0.00,WeatherDisplay:10.37,2013-08-19 06:06:00,
2013-08-19 01:11:00,64.3,63.1,30.04,SW,229,0.0,0.0,96,0.00,CLR,,0.00,WeatherDisplay:10.37,2013-08-19 06:11:00,
2013-08-19 01:16:00,64.2,63.0,30.04,SW,229,0.0,0.0,96,0.00,CLR,,0.00,WeatherDisplay:10.37,2013-08-19 06:16:00,
2013-08-19 01:21:00,64.0,62.8,30.04,SW,229,0.0,0.0,96,0.00,CLR,,0.00,WeatherDisplay:10.37,2013-08-19 06:21:00,
2013-08-19 01:26:00,63.9,62.7,30.04,SW,229,0.0,0.0,96,0.00,CLR,,0.00,WeatherDisplay:10.37,2013-08-19 06:26:00,
2013-08-19 01:31:00,63.8,62.6,30.03,SW,229,0.0,0.0,96,0.00,CLR,,0.00,WeatherDisplay:10.37,2013-08-19 06:31:00,
2013-08-19 01:36:00,63.8,62.6,30.04,SW,229,0.0,0.0,96,0.00,CLR,,0.00,WeatherDisplay:10.37,2013-08-19 06:36:00,
2013-08-19 01:41:00,63.8,62.9,30.03,SW,229,0.0,0.0,97,0.00,CLR,,0.00,WeatherDisplay:10.37,2013-08-19 06:41:00,
2013-08-19 01:46:00,63.8,62.9,30.03,SW,229,0.0,0.0,97,0.00,CLR,,0.00,WeatherDisplay:10.37,2013-08-19 06:46:00,
2013-08-19 01:51:00,63.8,62.9,30.03,SW,229,0.0,0.0,97,0.00,CLR,,0.00,WeatherDisplay:10.37,2013-08-19 06:51:00,
2013-08-19 01:56:00,63.7,62.5,30.03,SW,229,0.0,0.0,96,0.00,CLR,,0.00,WeatherDisplay:10.37,2013-08-19 06:56:00,
2013-08-19 02:01:00,63.7,62.5,30.04,SW,229,0.0,0.0,96,0.00,CLR,,0.00,WeatherDisplay:10.37,2013-08-19 07:01:00,
2013-08-19 02:06:00,63.6,62.4,30.04,SW,229,0.0,0.0,96,0.00,CLR,,0.00,WeatherDisplay:10.37,2013-08-19 07:06:00,
2013-08-19 02:11:00,63.6,62.7,30.03,SW,229,0.0,0.0,97,0.00,CLR,,0.00,WeatherDisplay:10.37,2013-08-19 07:11:00,
2013-08-19 02:16:00,63.6,62.7,30.03,SW,229,0.0,0.0,97,0.00,CLR,,0.00,WeatherDisplay:10.37,2013-08-19 07:16:00,
2013-08-19 02:21:00,63.7,62.8,30.03,SW,229,0.0,0.0,97,0.00,CLR,,0.00,WeatherDisplay:10.37,2013-08-19 07:21:00,
2013-08-19 02:26:00,63.6,62.4,30.03,SW,229,0.0,0.0,96,0.00,CLR,,0.00,WeatherDisplay:10.37,2013-08-19 07:26:00,
2013-08-19 02:31:00,63.4,62.2,30.03,SW,229,0.0,0.0,96,0.00,CLR,,0.00,WeatherDisplay:10.37,2013-08-19 07:31:00,
2013-08-19 02:36:00,63.3,62.4,30.03,SW,229,0.0,0.0,97,0.00,CLR,,0.00,WeatherDisplay:10.37,2013-08-19 07:36:00,
2013-08-19 02:41:00,63.3,62.4,30.03,SW,229,0.0,0.0,97,0.00,CLR,,0.00,WeatherDisplay:10.37,2013-08-19 07:41:00,
2013-08-19 02:47:00,63.3,62.4,30.03,SW,229,0.0,0.0,97,0.00,CLR,,0.00,WeatherDisplay:10.37,2013-08-19 07:47:00,
2013-08-19 02:52:00,63.2,62.3,30.04,SW,229,0.0,0.0,97,0.00,CLR,,0.00,WeatherDisplay:10.37,2013-08-19 07:52:00,
2013-08-19 02:57:00,63.2,62.3,30.04,SW,229,0.0,0.0,97,0.00,CLR,,0.00,WeatherDisplay:10.37,2013-08-19 07:57:00,
2013-08-19 03:02:00,63.1,62.2,30.04,SW,229,0.0,0.0,97,0.00,CLR,,0.00,WeatherDisplay:10.37,2013-08-19 08:02:00,
2013-08-19 03:07:00,63.0,62.1,30.03,SW,229,0.0,0.0,97,0.00,CLR,,0.00,WeatherDisplay:10.37,2013-08-19 08:07:00,
2013-08-19 03:12:00,63.0,62.1,30.03,SW,229,0.0,0.0,97,0.00,CLR,,0.00,WeatherDisplay:10.37,2013-08-19 08:12:00,
2013-08-19 03:17:00,62.9,62.0,30.03,SW,229,0.0,0.0,97,0.00,CLR,,0.00,WeatherDisplay:10.37,2013-08-19 08:17:00,
2013-08-19 03:22:00,62.9,62.0,30.03,SW,229,0.0,0.0,97,0.00,CLR,,0.00,WeatherDisplay:10.37,2013-08-19 08:22:00,
2013-08-19 03:27:00,62.8,61.9,30.03,SW,229,0.0,0.0,97,0.00,CLR,,0.00,WeatherDisplay:10.37,2013-08-19 08:27:00,
2013-08-19 03:32:00,62.9,62.0,30.03,SW,229,0.0,0.0,97,0.00,CLR,,0.00,WeatherDisplay:10.37,2013-08-19 08:32:00,
2013-08-19 03:37:00,62.9,62.0,30.03,SW,229,0.0,0.0,97,0.00,CLR,,0.00,WeatherDisplay:10.37,2013-08-19 08:37:00,
2013-08-19 03:42:00,62.9,62.0,30.03,SW,229,0.0,0.0,97,0.00,CLR,,0.00,WeatherDisplay:10.37,2013-08-19 08:42:00,
2013-08-19 03:47:00,62.9,62.0,30.03,SW,229,0.0,0.0,97,0.00,CLR,,0.00,WeatherDisplay:10.37,2013-08-19 08:47:00,
2013-08-19 03:52:00,63.3,62.7,30.03,SW,229,0.0,0.0,98,0.00,CLR,,0.00,WeatherDisplay:10.37,2013-08-19 08:52:00,
2013-08-19 03:57:00,63.8,63.2,30.04,SW,229,0.0,0.0,98,0.00,CLR,,0.00,WeatherDisplay:10.37,2013-08-19 08:57:00,
2013-08-19 04:02:00,63.9,63.3,30.04,SW,229,0.0,0.0,98,0.00,CLR,,0.00,WeatherDisplay:10.37,2013-08-19 09:02:00,
2013-08-19 04:07:00,64.0,63.4,30.03,SW,229,0.0,0.0,98,0.00,CLR,,0.00,WeatherDisplay:10.37,2013-08-19 09:07:00,
2013-08-19 04:12:00,64.2,63.6,30.03,SW,229,0.0,0.0,98,0.00,CLR,,0.00,WeatherDisplay:10.37,2013-08-19 09:12:00,
2013-08-19 04:17:00,64.1,63.2,30.03,SW,229,0.0,0.0,97,0.00,CLR,,0.00,WeatherDisplay:10.37,2013-08-19 09:17:00,
2013-08-19 04:22:00,64.0,63.1,30.03,SW,229,0.0,0.0,97,0.00,CLR,,0.00,WeatherDisplay:10.37,2013-08-19 09:22:00,
2013-08-19 04:27:00,63.8,62.9,30.03,SW,229,0.0,0.0,97,0.00,CLR,,0.00,WeatherDisplay:10.37,2013-08-19 09:27:00,
2013-08-19 04:32:00,63.8,62.9,30.03,SW,229,0.0,0.0,97,0.00,CLR,,0.00,WeatherDisplay:10.37,2013-08-19 09:32:00,
2013-08-19 04:37:00,63.8,62.9,30.04,SW,229,0.0,0.0,97,0.00,CLR,,0.00,WeatherDisplay:10.37,2013-08-19 09:37:00,
2013-08-19 04:42:00,63.9,63.0,30.04,SW,229,0.0,0.0,97,0.00,CLR,,0.00,WeatherDisplay:10.37,2013-08-19 09:42:00,
2013-08-19 04:47:00,63.8,62.9,30.04,SW,229,0.0,0.0,97,0.00,CLR,,0.00,WeatherDisplay:10.37,2013-08-19 09:47:00,
2013-08-19 04:52:00,63.8,62.9,30.04,SW,229,0.0,0.0,97,0.00,CLR,,0.00,WeatherDisplay:10.37,2013-08-19 09:52:00,
2013-08-19 04:57:00,63.8,62.9,30.04,SW,229,0.0,0.0,97,0.00,CLR,,0.00,WeatherDisplay:10.37,2013-08-19 09:57:00,
2013-08-19 05:02:00,63.7,62.8,30.04,SW,229,0.0,0.0,97,0.00,CLR,,0.00,WeatherDisplay:10.37,2013-08-19 10:02:00,
2013-08-19 05:07:00,63.7,62.8,30.05,SW,229,0.0,0.0,97,0.00,CLR,,0.00,WeatherDisplay:10.37,2013-08-19 10:07:00,
2013-08-19 05:12:00,63.6,62.7,30.05,SW,229,0.0,0.0,97,0.00,CLR,,0.00,WeatherDisplay:10.37,2013-08-19 10:12:00,
2013-08-19 05:17:00,63.6,62.7,30.05,SW,229,0.0,0.0,97,0.00,CLR,,0.00,WeatherDisplay:10.37,2013-08-19 10:17:00,
2013-08-19 05:22:00,63.6,62.7,30.05,SW,229,0.0,0.0,97,0.00,CLR,,0.00,WeatherDisplay:10.37,2013-08-19 10:22:00,
2013-08-19 05:27:00,63.6,63.0,30.05,SW,229,0.0,0.0,98,0.00,CLR,,0.00,WeatherDisplay:10.37,2013-08-19 10:27:00,
2013-08-19 05:32:00,63.6,62.7,30.05,SW,229,0.0,0.0,97,0.00,CLR,,0.00,WeatherDisplay:10.37,2013-08-19 10:32:00,
2013-08-19 05:37:00,63.6,62.7,30.05,SW,229,0.0,0.0,97,0.00,CLR,,0.00,WeatherDisplay:10.37,2013-08-19 10:37:00,
2013-08-19 05:42:00,63.7,63.1,30.05,SW,229,0.0,0.0,98,0.00,CLR,,0.00,WeatherDisplay:10.37,2013-08-19 10:42:00,
2013-08-19 05:47:00,63.7,63.1,30.05,SW,229,0.0,0.0,98,0.00,CLR,,0.00,WeatherDisplay:10.37,2013-08-19 10:47:00,
2013-08-19 05:52:00,63.7,62.8,30.05,SW,229,0.0,0.0,97,0.00,CLR,,0.00,WeatherDisplay:10.37,2013-08-19 10:52:00,
2013-08-19 05:57:00,63.6,62.7,30.05,SW,229,0.0,0.0,97,0.00,CLR,,0.00,WeatherDisplay:10.37,2013-08-19 10:57:00,
2013-08-19 06:02:00,63.6,62.7,30.05,SW,229,0.0,0.0,97,0.00,CLR,,0.00,WeatherDisplay:10.37,2013-08-19 11:02:00,
2013-08-19 06:07:00,63.5,62.6,30.05,SW,229,0.0,0.0,97,0.00,CLR,,0.00,WeatherDisplay:10.37,2013-08-19 11:07:00,
2013-08-19 06:12:00,63.5,62.9,30.05,SW,229,0.0,0.0,98,0.00,CLR,,0.00,WeatherDisplay:10.37,2013-08-19 11:12:00,
2013-08-19 06:17:00,63.5,62.9,30.05,SW,229,0.0,0.0,98,0.00,CLR,,0.00,WeatherDisplay:10.37,2013-08-19 11:17:00,
2013-08-19 06:22:00,63.4,62.8,30.05,SW,229,0.0,0.0,98,0.00,CLR,,0.00,WeatherDisplay:10.37,2013-08-19 11:22:00,
2013-08-19 06:27:00,63.3,62.4,30.05,SW,229,0.0,0.0,97,0.00,CLR,,0.00,WeatherDisplay:10.37,2013-08-19 11:27:00,
2013-08-19 06:32:00,63.1,62.2,30.05,SW,229,0.0,0.0,97,0.00,CLR,,0.00,WeatherDisplay:10.37,2013-08-19 11:32:00,
2013-08-19 06:37:00,63.1,62.2,30.05,SW,229,0.0,0.0,97,0.00,CLR,,0.00,WeatherDisplay:10.37,2013-08-19 11:37:00,
2013-08-19 06:42:00,63.0,62.1,30.06,SW,229,0.0,0.0,97,0.00,CLR,,0.00,WeatherDisplay:10.37,2013-08-19 11:42:00,
2013-08-19 06:47:00,62.9,62.3,30.06,SW,229,0.0,0.0,98,0.00,CLR,,0.00,WeatherDisplay:10.37,2013-08-19 11:47:00,
2013-08-19 06:52:00,63.0,62.4,30.06,SW,229,0.0,0.0,98,0.00,CLR,,0.00,WeatherDisplay:10.37,2013-08-19 11:52:00,
2013-08-19 06:57:00,63.1,62.5,30.06,SW,229,0.0,0.0,98,0.00,CLR,,0.00,WeatherDisplay:10.37,2013-08-19 11:57:00,
2013-08-19 07:02:00,63.3,62.7,30.06,SW,229,0.0,0.0,98,0.00,CLR,,0.00,WeatherDisplay:10.37,2013-08-19 12:02:00,
2013-08-19 07:07:00,63.4,62.8,30.06,SW,229,0.0,0.0,98,0.00,CLR,,0.00,WeatherDisplay:10.37,2013-08-19 12:07:00,
2013-08-19 07:12:00,63.6,63.0,30.06,SW,229,0.0,0.0,98,0.00,CLR,,0.00,WeatherDisplay:10.37,2013-08-19 12:12:00,
2013-08-19 07:17:00,63.6,63.0,30.06,SW,229,0.0,0.0,98,0.00,CLR,,0.00,WeatherDisplay:10.37,2013-08-19 12:17:00,
2013-08-19 07:22:00,63.8,63.2,30.06,SW,229,0.0,0.0,98,0.00,CLR,,0.00,WeatherDisplay:10.37,2013-08-19 12:22:00,
2013-08-19 07:27:00,64.0,63.4,30.06,SW,229,0.0,0.0,98,0.00,CLR,,0.00,WeatherDisplay:10.37,2013-08-19 12:27:00,
2013-08-19 07:32:00,64.2,63.6,30.06,SW,229,0.0,0.0,98,0.00,CLR,,0.00,WeatherDisplay:10.37,2013-08-19 12:32:00,
2013-08-19 07:37:00,64.6,64.0,30.06,SW,229,0.0,0.0,98,0.00,CLR,,0.00,WeatherDisplay:10.37,2013-08-19 12:37:00,
2013-08-19 07:42:00,64.7,64.1,30.06,SW,229,0.0,0.0,98,0.00,CLR,,0.00,WeatherDisplay:10.37,2013-08-19 12:42:00,
2013-08-19 07:47:00,64.9,64.3,30.06,SW,229,0.0,0.0,98,0.00,CLR,,0.00,WeatherDisplay:10.37,2013-08-19 12:47:00,
2013-08-19 07:52:00,65.2,64.6,30.06,SW,229,0.0,0.0,98,0.00,CLR,,0.00,WeatherDisplay:10.37,2013-08-19 12:52:00,
2013-08-19 07:57:00,65.3,65.0,30.06,SW,229,0.0,0.0,99,0.00,CLR,,0.00,WeatherDisplay:10.37,2013-08-19 12:57:00,
2013-08-19 08:02:00,66.2,65.9,30.06,SW,229,0.0,0.0,99,0.00,CLR,,0.00,WeatherDisplay:10.37,2013-08-19 13:02:00,
2013-08-19 08:07:00,66.9,66.6,30.06,SW,229,0.0,0.0,99,0.00,CLR,,0.00,WeatherDisplay:10.37,2013-08-19 13:07:00,
2013-08-19 08:12:00,67.5,67.2,30.06,SW,229,0.0,0.0,99,0.00,CLR,,0.00,WeatherDisplay:10.37,2013-08-19 13:12:00,
2013-08-19 08:17:00,67.9,67.6,30.06,SW,229,0.0,0.0,99,0.00,CLR,,0.00,WeatherDisplay:10.37,2013-08-19 13:17:00,
2013-08-19 08:22:00,68.2,67.9,30.06,SW,229,0.0,0.0,99,0.00,CLR,,0.00,WeatherDisplay:10.37,2013-08-19 13:22:00,
2013-08-19 08:27:00,68.4,68.1,30.06,SW,229,0.0,0.0,99,0.00,CLR,,0.00,WeatherDisplay:10.37,2013-08-19 13:27:00,
2013-08-19 08:32:00,68.6,68.3,30.06,SW,229,0.0,0.0,99,0.00,CLR,,0.00,WeatherDisplay:10.37,2013-08-19 13:32:00,
2013-08-19 08:37:00,68.8,68.5,30.06,SW,229,0.0,0.0,99,0.00,CLR,,0.00,WeatherDisplay:10.37,2013-08-19 13:37:00,
2013-08-19 08:42:00,69.1,68.8,30.07,SW,229,0.0,0.0,99,0.00,CLR,,0.00,WeatherDisplay:10.37,2013-08-19 13:42:00,
2013-08-19 08:47:00,69.4,69.1,30.06,SW,229,0.0,0.0,99,0.00,CLR,,0.00,WeatherDisplay:10.37,2013-08-19 13:47:00,
2013-08-19 08:52:00,69.7,69.4,30.07,SW,229,0.0,0.0,99,0.00,CLR,,0.00,WeatherDisplay:10.37,2013-08-19 13:52:00,
2013-08-19 08:57:00,69.8,69.2,30.07,SW,229,0.0,0.0,98,0.00,CLR,,0.00,WeatherDisplay:10.37,2013-08-19 13:57:00,
2013-08-19 09:02:00,70.2,69.9,30.06,SW,229,0.0,0.0,99,0.00,CLR,,0.00,WeatherDisplay:10.37,2013-08-19 14:02:00,
2013-08-19 09:07:00,70.7,70.4,30.06,SW,229,0.0,0.0,99,0.00,CLR,,0.00,WeatherDisplay:10.37,2013-08-19 14:07:00,
2013-08-19 09:12:00,71.2,70.9,30.06,SW,229,0.0,0.0,99,0.00,CLR,,0.00,WeatherDisplay:10.37,2013-08-19 14:12:00,
2013-08-19 09:17:00,71.3,71.0,30.07,SW,229,0.0,0.0,99,0.00,CLR,,0.00,WeatherDisplay:10.37,2013-08-19 14:17:00,
2013-08-19 09:22:00,71.6,71.0,30.07,SW,229,1.1,0.0,98,0.00,CLR,,0.00,WeatherDisplay:10.37,2013-08-19 14:22:00,
2013-08-19 09:27:00,71.9,71.3,30.07,SW,229,0.0,0.0,98,0.00,CLR,,0.00,WeatherDisplay:10.37,2013-08-19 14:27:00,
2013-08-19 09:32:00,72.1,71.2,30.07,SW,229,0.0,0.0,97,0.00,CLR,,0.00,WeatherDisplay:10.37,2013-08-19 14:32:00,
2013-08-19 09:37:00,72.6,71.7,30.07,WSW,240,0.0,0.2,97,0.00,CLR,,0.00,WeatherDisplay:10.37,2013-08-19 14:37:00,
2013-08-19 09:43:00,73.0,72.1,30.07,NW,307,0.0,0.0,97,0.00,CLR,,0.00,WeatherDisplay:10.37,2013-08-19 14:43:00,
2013-08-19 09:48:00,73.7,72.5,30.07,WNW,292,0.0,0.0,96,0.00,CLR,,0.00,WeatherDisplay:10.37,2013-08-19 14:48:00,
2013-08-19 09:53:00,74.3,72.8,30.07,WNW,292,0.0,0.0,95,0.00,CLR,,0.00,WeatherDisplay:10.37,2013-08-19 14:53:00,
2013-08-19 09:58:00,74.5,72.3,30.07,WNW,292,0.0,0.0,93,0.00,CLR,,0.00,WeatherDisplay:10.37,2013-08-19 14:58:00,
2013-08-19 10:03:00,74.8,72.3,30.07,WNW,292,0.0,0.0,92,0.00,CLR,,0.00,WeatherDisplay:10.37,2013-08-19 15:03:00,
2013-08-19 10:08:00,74.9,71.4,30.07,WNW,292,1.1,0.0,89,0.00,CLR,,0.00,WeatherDisplay:10.37,2013-08-19 15:08:00,
2013-08-19 10:13:00,74.9,70.8,30.07,WNW,292,0.0,0.0,87,0.00,CLR,,0.00,WeatherDisplay:10.37,2013-08-19 15:13:00,
2013-08-19 10:18:00,75.3,71.2,30.07,WNW,293,1.1,1.1,87,0.00,CLR,,0.00,WeatherDisplay:10.37,2013-08-19 15:18:00,
2013-08-19 10:23:00,75.6,71.5,30.07,WNW,292,0.0,0.0,87,0.00,CLR,,0.00,WeatherDisplay:10.37,2013-08-19 15:23:00,
2013-08-19 10:28:00,75.9,71.4,30.07,WNW,292,0.0,0.1,86,0.00,CLR,,0.00,WeatherDisplay:10.37,2013-08-19 15:28:00,
2013-08-19 10:33:00,76.6,72.4,30.07,WNW,292,0.0,0.0,87,0.00,CLR,,0.00,WeatherDisplay:10.37,2013-08-19 15:33:00,
2013-08-19 10:38:00,77.4,72.5,30.07,WNW,292,0.0,0.0,85,0.00,CLR,,0.00,WeatherDisplay:10.37,2013-08-19 15:38:00,
2013-08-19 10:43:00,77.8,71.1,30.07,WNW,291,1.1,0.0,80,0.00,CLR,,0.00,WeatherDisplay:10.37,2013-08-19 15:43:00,
2013-08-19 10:48:00,77.9,70.1,30.07,WNW,292,0.0,0.0,77,0.00,CLR,,0.00,WeatherDisplay:10.37,2013-08-19 15:48:00,
2013-08-19 10:53:00,78.0,69.8,30.07,WNW,292,0.0,0.0,76,0.00,CLR,,0.00,WeatherDisplay:10.37,2013-08-19 15:53:00,
2013-08-19 10:58:00,78.2,70.4,30.07,WNW,301,0.0,0.0,77,0.00,CLR,,0.00,WeatherDisplay:10.37,2013-08-19 15:58:00,
2013-08-19 11:03:00,77.9,69.7,30.07,WNW,302,0.0,0.0,76,0.00,CLR,,0.00,WeatherDisplay:10.37,2013-08-19 16:03:00,
2013-08-19 11:08:00,77.6,69.4,30.07,WNW,302,0.0,0.0,76,0.00,CLR,,0.00,WeatherDisplay:10.37,2013-08-19 16:08:00,
2013-08-19 11:13:00,77.7,70.3,30.07,WNW,302,1.1,1.1,78,0.00,CLR,,0.00,WeatherDisplay:10.37,2013-08-19 16:13:00,
2013-08-19 11:18:00,77.6,69.4,30.07,WNW,302,0.0,0.0,76,0.00,CLR,,0.00,WeatherDisplay:10.37,2013-08-19 16:18:00,
2013-08-19 11:23:00,77.6,69.0,30.07,WNW,302,0.0,0.0,75,0.00,CLR,,0.00,WeatherDisplay:10.37,2013-08-19 16:23:00,
2013-08-19 11:28:00,77.8,69.6,30.06,WNW,301,1.1,1.1,76,0.00,CLR,,0.00,WeatherDisplay:10.37,2013-08-19 16:28:00,
2013-08-19 11:33:00,77.7,68.7,30.06,WNW,301,0.0,0.0,74,0.00,CLR,,0.00,WeatherDisplay:10.37,2013-08-19 16:33:00,
2013-08-19 11:38:00,77.9,70.1,30.06,WNW,301,0.0,0.0,77,0.00,CLR,,0.00,WeatherDisplay:10.37,2013-08-19 16:38:00,
2013-08-19 11:43:00,78.3,69.7,30.06,NW,318,1.1,1.1,75,0.00,CLR,,0.00,WeatherDisplay:10.37,2013-08-19 16:43:00,
2013-08-19 11:48:00,79.1,70.9,30.06,ESE,113,3.5,3.5,76,0.00,CLR,,0.00,WeatherDisplay:10.37,2013-08-19 16:48:00,
2013-08-19 11:53:00,79.9,70.9,30.06,ESE,115,3.5,0.0,74,0.00,CLR,,0.00,WeatherDisplay:10.37,2013-08-19 16:53:00,
2013-08-19 11:58:00,80.5,70.2,30.06,East,94,3.5,3.5,71,0.00,CLR,,0.00,WeatherDisplay:10.37,2013-08-19 16:58:00,
2013-08-19 12:03:00,80.7,70.4,30.06,East,96,2.0,2.0,71,0.00,CLR,,0.00,WeatherDisplay:10.37,2013-08-19 17:03:00,
2013-08-19 12:08:00,80.8,70.9,30.05,East,93,3.5,3.5,72,0.00,CLR,,0.00,WeatherDisplay:10.37,2013-08-19 17:08:00,
2013-08-19 12:13:00,81.0,70.3,30.05,ESE,107,3.5,3.5,70,0.00,CLR,,0.00,WeatherDisplay:10.37,2013-08-19 17:13:00,
2013-08-19 12:18:00,81.2,70.5,30.05,ESE,107,0.0,0.0,70,0.00,CLR,,0.00,WeatherDisplay:10.37,2013-08-19 17:18:00,
2013-08-19 12:23:00,81.1,70.4,30.05,East,101,3.0,3.0,70,0.00,CLR,,0.00,WeatherDisplay:10.37,2013-08-19 17:23:00,
2013-08-19 12:28:00,81.1,70.8,30.05,ESE,115,0.0,0.0,71,0.00,CLR,,0.00,WeatherDisplay:10.37,2013-08-19 17:28:00,
2013-08-19 12:33:00,81.3,71.0,30.05,ESE,103,3.5,3.5,71,0.00,CLR,,0.00,WeatherDisplay:10.37,2013-08-19 17:33:00,
2013-08-19 12:38:00,81.6,71.3,30.05,ENE,76,3.5,3.5,71,0.00,CLR,,0.00,WeatherDisplay:10.37,2013-08-19 17:38:00,
2013-08-19 12:43:00,81.9,70.3,30.04,ENE,73,3.5,3.5,68,0.00,CLR,,0.00,WeatherDisplay:10.37,2013-08-19 17:43:00,
2013-08-19 12:48:00,82.1,70.1,30.04,ESE,123,3.5,3.5,67,0.00,CLR,,0.00,WeatherDisplay:10.37,2013-08-19 17:48:00,
2013-08-19 12:53:00,82.1,70.9,30.04,ENE,78,0.0,0.0,69,0.00,CLR,,0.00,WeatherDisplay:10.37,2013-08-19 17:53:00,
2013-08-19 12:58:00,82.1,70.9,30.04,ESE,114,0.0,0.0,69,0.00,CLR,,0.00,WeatherDisplay:10.37,2013-08-19 17:58:00,
2013-08-19 13:03:00,81.9,70.7,30.04,ESE,114,1.1,0.0,69,0.00,CLR,,0.00,WeatherDisplay:10.37,2013-08-19 18:03:00,
2013-08-19 13:08:00,82.0,71.7,30.04,ESE,119,3.5,0.0,71,0.00,CLR,,0.00,WeatherDisplay:10.37,2013-08-19 18:08:00,
2013-08-19 13:13:00,82.1,71.3,30.04,ESE,109,0.0,0.2,70,0.00,CLR,,0.00,WeatherDisplay:10.37,2013-08-19 18:13:00,
2013-08-19 13:18:00,82.2,70.1,30.03,SE,134,3.0,3.0,67,0.00,CLR,,0.00,WeatherDisplay:10.37,2013-08-19 18:18:00,
2013-08-19 13:23:00,82.2,70.1,30.03,SE,129,3.5,3.5,67,0.00,CLR,,0.00,WeatherDisplay:10.37,2013-08-19 18:23:00,
2013-08-19 13:28:00,82.3,71.5,30.03,SSW,194,1.1,1.1,70,0.00,CLR,,0.00,WeatherDisplay:10.37,2013-08-19 18:28:00,
2013-08-19 13:33:00,82.5,70.4,30.03,ESE,121,1.0,1.0,67,0.00,CLR,,0.00,WeatherDisplay:10.37,2013-08-19 18:33:00,
2013-08-19 13:38:00,82.5,70.4,30.03,East,101,1.1,1.1,67,0.00,CLR,,0.00,WeatherDisplay:10.37,2013-08-19 18:38:00,
2013-08-19 13:43:00,82.5,70.4,30.03,NW,319,2.3,2.3,67,0.00,CLR,,0.00,WeatherDisplay:10.37,2013-08-19 18:43:00,
2013-08-19 13:48:00,82.7,70.2,30.02,ESE,120,2.3,0.0,66,0.00,CLR,,0.00,WeatherDisplay:10.37,2013-08-19 18:48:00,
2013-08-19 13:53:00,82.8,69.8,30.02,East,93,2.3,2.3,65,0.00,CLR,,0.00,WeatherDisplay:10.37,2013-08-19 18:53:00,
2013-08-19 13:58:00,82.7,69.7,30.03,SE,136,1.1,1.1,65,0.00,CLR,,0.00,WeatherDisplay:10.37,2013-08-19 18:58:00,
2013-08-19 14:03:00,82.7,70.2,30.03,ESE,122,2.3,0.0,66,0.00,CLR,,0.00,WeatherDisplay:10.37,2013-08-19 19:03:00,
2013-08-19 14:08:00,82.7,69.3,30.03,ESE,121,0.0,0.0,64,0.00,CLR,,0.00,WeatherDisplay:10.37,2013-08-19 19:08:00,
2013-08-19 14:13:00,82.6,71.0,30.03,SE,127,0.0,0.0,68,0.00,CLR,,0.00,WeatherDisplay:10.37,2013-08-19 19:13:00,
2013-08-19 14:18:00,82.7,69.7,30.03,SSE,150,1.1,0.0,65,0.00,CLR,,0.00,WeatherDisplay:10.37,2013-08-19 19:18:00,
2013-08-19 14:24:00,83.0,72.2,30.02,WSW,237,1.1,1.1,70,0.00,CLR,,0.00,WeatherDisplay:10.37,2013-08-19 19:24:00,
2013-08-19 14:29:00,82.9,69.9,30.02,WSW,249,0.0,0.0,65,0.00,CLR,,0.00,WeatherDisplay:10.37,2013-08-19 19:29:00,
2013-08-19 14:34:00,83.0,70.5,30.02,WSW,249,0.0,0.0,66,0.00,CLR,,0.00,WeatherDisplay:10.37,2013-08-19 19:34:00,
2013-08-19 14:39:00,83.4,70.8,30.02,SSE,150,0.0,0.0,66,0.00,CLR,,0.00,WeatherDisplay:10.37,2013-08-19 19:39:00,
2013-08-19 14:44:00,83.5,70.5,30.02,ESE,123,0.0,0.0,65,0.00,CLR,,0.00,WeatherDisplay:10.37,2013-08-19 19:44:00,
2013-08-19 14:49:00,83.2,71.1,30.02,ESE,117,0.0,0.0,67,0.00,CLR,,0.00,WeatherDisplay:10.37,2013-08-19 19:49:00,
2013-08-19 14:54:00,82.8,70.3,30.02,ESE,117,0.0,0.0,66,0.00,CLR,,0.00,WeatherDisplay:10.37,2013-08-19 19:54:00,
2013-08-19 14:59:00,82.5,70.0,30.02,ESE,117,0.0,0.0,66,0.00,CLR,,0.00,WeatherDisplay:10.37,2013-08-19 19:59:00,
2013-08-19 15:04:00,82.0,70.0,30.02,ESE,117,0.0,0.0,67,0.00,CLR,,0.00,WeatherDisplay:10.37,2013-08-19 20:04:00,
2013-08-19 15:09:00,81.5,71.2,30.01,ESE,117,0.0,0.0,71,0.00,CLR,,0.00,WeatherDisplay:10.37,2013-08-19 20:09:00,
2013-08-19 15:14:00,80.9,70.2,30.01,ESE,117,0.0,0.0,70,0.00,CLR,,0.00,WeatherDisplay:10.37,2013-08-19 20:14:00,
2013-08-19 15:19:00,80.7,71.2,30.01,ESE,117,0.0,0.0,73,0.00,CLR,,0.00,WeatherDisplay:10.37,2013-08-19 20:19:00,
2013-08-19 15:24:00,80.5,70.6,30.01,ESE,117,0.0,0.0,72,0.00,CLR,,0.00,WeatherDisplay:10.37,2013-08-19 20:24:00,
2013-08-19 15:29:00,80.5,70.2,30.01,ESE,117,0.0,0.0,71,0.00,CLR,,0.00,WeatherDisplay:10.37,2013-08-19 20:29:00,
2013-08-19 15:34:00,80.6,71.1,30.01,ESE,117,0.0,0.0,73,0.00,CLR,,0.00,WeatherDisplay:10.37,2013-08-19 20:34:00,
2013-08-19 15:39:00,80.5,71.4,30.01,ESE,117,0.0,0.0,74,0.00,CLR,,0.00,WeatherDisplay:10.37,2013-08-19 20:39:00,
2013-08-19 15:44:00,80.5,69.4,30.01,ESE,117,0.0,0.0,69,0.00,CLR,,0.00,WeatherDisplay:10.37,2013-08-19 20:44:00,
2013-08-19 15:49:00,81.1,71.2,30.00,NNW,327,1.1,1.1,72,0.00,CLR,,0.00,WeatherDisplay:10.37,2013-08-19 20:49:00,
2013-08-19 15:54:00,81.8,70.6,30.00,NNW,327,0.0,0.0,69,0.00,CLR,,0.00,WeatherDisplay:10.37,2013-08-19 20:54:00,
2013-08-19 15:59:00,82.2,70.1,30.00,NNW,327,1.1,1.1,67,0.00,CLR,,0.00,WeatherDisplay:10.37,2013-08-19 20:59:00,
2013-08-19 16:04:00,82.8,70.7,30.00,West,268,2.3,2.3,67,0.00,CLR,,0.00,WeatherDisplay:10.37,2013-08-19 21:04:00,
2013-08-19 16:09:00,83.6,72.3,30.00,West,263,4.6,4.6,69,0.00,CLR,,0.00,WeatherDisplay:10.37,2013-08-19 21:09:00,
2013-08-19 16:14:00,84.3,72.6,30.00,West,268,3.0,3.0,68,0.00,CLR,,0.00,WeatherDisplay:10.37,2013-08-19 21:14:00,
2013-08-19 16:19:00,84.9,73.2,30.00,WSW,247,2.3,2.3,68,0.00,CLR,,0.00,WeatherDisplay:10.37,2013-08-19 21:19:00,
2013-08-19 16:24:00,85.1,71.5,29.99,WSW,247,0.0,0.0,64,0.00,CLR,,0.00,WeatherDisplay:10.37,2013-08-19 21:24:00,
2013-08-19 16:29:00,85.2,72.6,30.00,West,259,3.5,3.5,66,0.00,CLR,,0.00,WeatherDisplay:10.37,2013-08-19 21:29:00,
2013-08-19 16:34:00,85.5,71.9,30.00,West,270,1.1,0.0,64,0.00,CLR,,0.00,WeatherDisplay:10.37,2013-08-19 21:34:00,
2013-08-19 16:39:00,85.1,71.1,29.99,West,270,0.0,0.0,63,0.00,CLR,,0.00,WeatherDisplay:10.37,2013-08-19 21:39:00,
2013-08-19 16:44:00,85.2,71.6,29.99,WSW,243,1.1,1.1,64,0.00,CLR,,0.00,WeatherDisplay:10.37,2013-08-19 21:44:00,
2013-08-19 16:49:00,85.5,72.8,29.99,WSW,243,1.1,1.1,66,0.00,CLR,,0.00,WeatherDisplay:10.37,2013-08-19 21:49:00,
2013-08-19 16:54:00,85.7,72.1,29.99,WSW,243,1.1,1.1,64,0.00,CLR,,0.00,WeatherDisplay:10.37,2013-08-19 21:54:00,
2013-08-19 16:59:00,86.0,71.9,29.99,West,266,3.5,3.5,63,0.00,CLR,,0.00,WeatherDisplay:10.37,2013-08-19 21:59:00,
2013-08-19 17:04:00,86.5,71.9,29.99,West,266,2.3,2.3,62,0.00,CLR,,0.00,WeatherDisplay:10.37,2013-08-19 22:04:00,
2013-08-19 17:09:00,86.1,70.1,29.99,NW,310,0.0,0.0,59,0.00,CLR,,0.00,WeatherDisplay:10.37,2013-08-19 22:09:00,
2013-08-19 17:14:00,85.4,70.9,29.99,NW,310,0.0,0.0,62,0.00,CLR,,0.00,WeatherDisplay:10.37,2013-08-19 22:14:00,
2013-08-19 17:19:00,84.8,70.3,29.99,NW,310,0.0,0.0,62,0.00,CLR,,0.00,WeatherDisplay:10.37,2013-08-19 22:19:00,
2013-08-19 17:24:00,84.5,70.5,29.99,NW,310,1.0,1.0,63,0.00,CLR,,0.00,WeatherDisplay:10.37,2013-08-19 22:24:00,
2013-08-19 17:29:00,84.4,70.0,29.98,NW,310,0.0,0.0,62,0.00,CLR,,0.00,WeatherDisplay:10.37,2013-08-19 22:29:00,
2013-08-19 17:34:00,84.0,69.1,29.98,NW,310,0.0,0.0,61,0.00,CLR,,0.00,WeatherDisplay:10.37,2013-08-19 22:34:00,
2013-08-19 17:39:00,83.8,70.8,29.98,NW,310,2.3,2.3,65,0.00,CLR,,0.00,WeatherDisplay:10.37,2013-08-19 22:39:00,
2013-08-19 17:44:00,84.3,71.7,29.98,NW,310,0.0,0.0,66,0.00,CLR,,0.00,WeatherDisplay:10.37,2013-08-19 22:44:00,
2013-08-19 17:49:00,84.7,71.6,29.98,NW,310,0.0,0.0,65,0.00,CLR,,0.00,WeatherDisplay:10.37,2013-08-19 22:49:00,
2013-08-19 17:54:00,84.8,72.2,29.98,NW,310,0.0,0.0,66,0.00,CLR,,0.00,WeatherDisplay:10.37,2013-08-19 22:54:00,
2013-08-19 17:59:00,84.6,71.5,29.98,NW,310,0.0,0.0,65,0.00,CLR,,0.00,WeatherDisplay:10.37,2013-08-19 22:59:00,
2013-08-19 18:04:00,84.1,69.7,29.98,NW,310,0.0,0.0,62,0.00,CLR,,0.00,WeatherDisplay:10.37,2013-08-19 23:04:00,
2013-08-19 18:09:00,83.9,70.0,29.97,NW,310,0.0,0.0,63,0.00,CLR,,0.00,WeatherDisplay:10.37,2013-08-19 23:09:00,
2013-08-19 18:14:00,83.4,69.9,29.97,NW,310,0.0,0.0,64,0.00,CLR,,0.00,WeatherDisplay:10.37,2013-08-19 23:14:00,
2013-08-19 18:19:00,83.2,69.8,29.97,NW,310,0.0,0.0,64,0.00,CLR,,0.00,WeatherDisplay:10.37,2013-08-19 23:19:00,
2013-08-19 18:24:00,83.4,72.2,29.97,NW,310,0.0,0.0,69,0.00,CLR,,0.00,WeatherDisplay:10.37,2013-08-19 23:24:00,
2013-08-19 18:29:00,83.4,71.3,29.97,NW,310,0.0,0.0,67,0.00,CLR,,0.00,WeatherDisplay:10.37,2013-08-19 23:29:00,
2013-08-19 18:34:00,83.4,70.8,29.97,NW,310,0.0,0.0,66,0.00,CLR,,0.00,WeatherDisplay:10.37,2013-08-19 23:34:00,
2013-08-19 18:39:00,83.2,72.0,29.97,NW,310,0.0,0.0,69,0.00,CLR,,0.00,WeatherDisplay:10.37,2013-08-19 23:39:00,
2013-08-19 18:44:00,82.6,69.6,29.97,NW,310,0.0,0.0,65,0.00,CLR,,0.00,WeatherDisplay:10.37,2013-08-19 23:44:00,
2013-08-19 18:49:00,82.6,72.2,29.97,NW,310,0.0,0.0,71,0.00,CLR,,0.00,WeatherDisplay:10.37,2013-08-19 23:49:00,
2013-08-19 18:54:00,82.5,70.9,29.97,NW,310,0.0,0.0,68,0.00,CLR,,0.00,WeatherDisplay:10.37,2013-08-19 23:54:00,
2013-08-19 18:59:00,82.6,71.8,29.97,NW,310,0.0,0.0,70,0.00,CLR,,0.00,WeatherDisplay:10.37,2013-08-19 23:59:00,
2013-08-19 19:04:00,82.5,71.7,29.97,NW,310,0.0,0.0,70,0.00,CLR,,0.00,WeatherDisplay:10.37,2013-08-20 00:04:00,
2013-08-19 19:09:00,82.4,72.0,29.97,NW,310,0.0,0.0,71,0.00,CLR,,0.00,WeatherDisplay:10.37,2013-08-20 00:09:00,
2013-08-19 19:14:00,82.3,72.4,29.97,NW,310,0.0,0.0,72,0.00,CLR,,0.00,WeatherDisplay:10.37,2013-08-20 00:14:00,
2013-08-19 19:19:00,82.0,72.9,29.97,NW,310,0.0,0.0,74,0.00,CLR,,0.00,WeatherDisplay:10.37,2013-08-20 00:19:00,
2013-08-19 19:24:00,81.2,72.9,29.97,NW,310,0.0,0.0,76,0.00,CLR,,0.00,WeatherDisplay:10.37,2013-08-20 00:24:00,
2013-08-19 19:29:00,80.4,72.5,29.97,NW,310,0.0,0.0,77,0.00,CLR,,0.00,WeatherDisplay:10.37,2013-08-20 00:29:00,
2013-08-19 19:34:00,79.8,72.3,29.97,NW,310,0.0,0.0,78,0.00,CLR,,0.00,WeatherDisplay:10.37,2013-08-20 00:34:00,
2013-08-19 19:39:00,79.2,72.1,29.98,NW,310,0.0,0.0,79,0.00,CLR,,0.00,WeatherDisplay:10.37,2013-08-20 00:39:00,
2013-08-19 19:44:00,78.7,72.0,29.98,NW,310,0.0,0.0,80,0.00,CLR,,0.00,WeatherDisplay:10.37,2013-08-20 00:44:00,
2013-08-19 19:49:00,78.1,71.4,29.98,NW,310,0.0,0.0,80,0.00,CLR,,0.00,WeatherDisplay:10.37,2013-08-20 00:49:00,
2013-08-19 19:55:00,77.4,71.5,29.98,NW,310,0.0,0.0,82,0.00,CLR,,0.00,WeatherDisplay:10.37,2013-08-20 00:55:00,
2013-08-19 20:00:00,76.8,71.2,29.98,NW,310,0.0,0.0,83,0.00,CLR,,0.00,WeatherDisplay:10.37,2013-08-20 01:00:00,
2013-08-19 20:05:00,76.3,71.1,29.98,NW,310,0.0,0.0,84,0.00,CLR,,0.00,WeatherDisplay:10.37,2013-08-20 01:05:00,
2013-08-19 20:10:00,75.9,70.7,29.99,NW,310,0.0,0.0,84,0.00,CLR,,0.00,WeatherDisplay:10.37,2013-08-20 01:10:00,
2013-08-19 20:15:00,75.5,70.7,29.98,NW,310,0.0,0.0,85,0.00,CLR,,0.00,WeatherDisplay:10.37,2013-08-20 01:15:00,
2013-08-19 20:20:00,75.0,70.2,29.98,NW,310,0.0,0.0,85,0.00,CLR,,0.00,WeatherDisplay:10.37,2013-08-20 01:20:00,
2013-08-19 20:25:00,74.6,70.2,29.99,NW,310,0.0,0.0,86,0.00,CLR,,0.00,WeatherDisplay:10.37,2013-08-20 01:25:00,
2013-08-19 20:30:00,74.3,70.2,29.99,NW,310,0.0,0.0,87,0.00,CLR,,0.00,WeatherDisplay:10.37,2013-08-20 01:30:00,
2013-08-19 20:35:00,73.9,69.8,29.99,NW,310,0.0,0.0,87,0.00,CLR,,0.00,WeatherDisplay:10.37,2013-08-20 01:35:00,
2013-08-19 20:40:00,73.6,69.8,29.99,NW,310,0.0,0.0,88,0.00,CLR,,0.00,WeatherDisplay:10.37,2013-08-20 01:40:00,
2013-08-19 20:45:00,73.2,69.4,29.99,NW,310,0.0,0.0,88,0.00,CLR,,0.00,WeatherDisplay:10.37,2013-08-20 01:45:00,
2013-08-19 20:50:00,72.8,69.0,29.99,NW,310,0.0,0.0,88,0.00,CLR,,0.00,WeatherDisplay:10.37,2013-08-20 01:50:00,
2013-08-19 20:55:00,72.5,69.1,29.99,NW,310,0.0,0.0,89,0.00,CLR,,0.00,WeatherDisplay:10.37,2013-08-20 01:55:00,
2013-08-19 21:00:00,72.3,68.9,30.00,NW,310,0.0,0.0,89,0.00,CLR,,0.00,WeatherDisplay:10.37,2013-08-20 02:00:00,
2013-08-19 21:05:00,72.0,68.9,30.00,NW,310,0.0,0.0,90,0.00,CLR,,0.00,WeatherDisplay:10.37,2013-08-20 02:05:00,
2013-08-19 21:10:00,71.8,68.7,30.00,NW,310,0.0,0.0,90,0.00,CLR,,0.00,WeatherDisplay:10.37,2013-08-20 02:10:00,
2013-08-19 21:15:00,71.6,68.5,30.00,NW,310,0.0,0.0,90,0.00,CLR,,0.00,WeatherDisplay:10.37,2013-08-20 02:15:00,
2013-08-19 21:20:00,71.4,68.6,30.00,NW,310,0.0,0.0,91,0.00,CLR,,0.00,WeatherDisplay:10.37,2013-08-20 02:20:00,
2013-08-19 21:25:00,71.2,68.5,30.00,NW,310,0.0,0.0,91,0.00,CLR,,0.00,WeatherDisplay:10.37,2013-08-20 02:25:00,
2013-08-19 21:30:00,71.0,68.2,30.00,NW,310,0.0,0.0,91,0.00,CLR,,0.00,WeatherDisplay:10.37,2013-08-20 02:30:00,
2013-08-19 21:35:00,70.8,68.0,30.00,NW,310,0.0,0.0,91,0.00,CLR,,0.00,WeatherDisplay:10.37,2013-08-20 02:35:00,
2013-08-19 21:40:00,70.5,67.7,30.00,NW,310,0.0,0.0,91,0.00,CLR,,0.00,WeatherDisplay:10.37,2013-08-20 02:40:00,
2013-08-19 21:45:00,70.3,67.9,30.00,NW,310,0.0,0.0,92,0.00,CLR,,0.00,WeatherDisplay:10.37,2013-08-20 02:45:00,
2013-08-19 21:50:00,70.2,67.8,30.00,NW,310,0.0,0.0,92,0.00,CLR,,0.00,WeatherDisplay:10.37,2013-08-20 02:50:00,
2013-08-19 21:55:00,70.1,67.7,30.00,NW,310,0.0,0.0,92,0.00,CLR,,0.00,WeatherDisplay:10.37,2013-08-20 02:55:00,
2013-08-19 22:00:00,70.0,67.6,30.00,NW,310,0.0,0.0,92,0.00,CLR,,0.00,WeatherDisplay:10.37,2013-08-20 03:00:00,
2013-08-19 22:05:00,69.9,67.8,30.00,NW,310,0.0,0.0,93,0.00,CLR,,0.00,WeatherDisplay:10.37,2013-08-20 03:05:00,
2013-08-19 22:10:00,69.8,67.7,30.00,NW,310,0.0,0.0,93,0.00,CLR,,0.00,WeatherDisplay:10.37,2013-08-20 03:10:00,
2013-08-19 22:15:00,69.8,67.7,30.00,NW,310,0.0,0.0,93,0.00,CLR,,0.00,WeatherDisplay:10.37,2013-08-20 03:15:00,
2013-08-19 22:20:00,69.7,67.6,30.01,NW,310,0.0,0.0,93,0.00,CLR,,0.00,WeatherDisplay:10.37,2013-08-20 03:20:00,
2013-08-19 22:25:00,69.6,67.5,30.01,NW,310,0.0,0.0,93,0.00,CLR,,0.00,WeatherDisplay:10.37,2013-08-20 03:25:00,
2013-08-19 22:30:00,69.5,67.4,30.01,NW,310,0.0,0.0,93,0.00,CLR,,0.00,WeatherDisplay:10.37,2013-08-20 03:30:00,
2013-08-19 22:35:00,69.5,67.7,30.01,NW,310,0.0,0.0,94,0.00,CLR,,0.00,WeatherDisplay:10.37,2013-08-20 03:35:00,
2013-08-19 22:40:00,69.4,67.6,30.01,NW,310,0.0,0.0,94,0.00,CLR,,0.00,WeatherDisplay:10.37,2013-08-20 03:40:00,
2013-08-19 22:45:00,69.4,67.6,30.01,NW,310,0.0,0.0,94,0.00,CLR,,0.00,WeatherDisplay:10.37,2013-08-20 03:45:00,
2013-08-19 22:50:00,69.2,67.1,30.01,NW,310,0.0,0.0,93,0.00,CLR,,0.00,WeatherDisplay:10.37,2013-08-20 03:50:00,
2013-08-19 22:55:00,69.1,67.0,30.01,NW,310,0.0,0.0,93,0.00,CLR,,0.00,WeatherDisplay:10.37,2013-08-20 03:55:00,
2013-08-19 23:00:00,68.9,66.8,30.01,NW,310,0.0,0.0,93,0.00,CLR,,0.00,WeatherDisplay:10.37,2013-08-20 04:00:00,
2013-08-19 23:01:00,68.9,67.1,30.01,NW,310,0.0,0.0,94,0.00,CLR,,0.00,WeatherDisplay:10.37,2013-08-20 04:01:00,
2013-08-19 23:06:00,68.8,67.0,30.01,NW,310,0.0,0.0,94,0.00,CLR,,0.00,WeatherDisplay:10.37,2013-08-20 04:06:00,
2013-08-19 23:11:00,68.7,66.9,30.01,NW,310,0.0,0.0,94,0.00,CLR,,0.00,WeatherDisplay:10.37,2013-08-20 04:11:00,
2013-08-19 23:16:00,68.6,66.8,30.01,NW,310,0.0,0.0,94,0.00,CLR,,0.00,WeatherDisplay:10.37,2013-08-20 04:16:00,
2013-08-19 23:21:00,68.5,66.7,30.01,NW,310,0.0,0.0,94,0.00,CLR,,0.00,WeatherDisplay:10.37,2013-08-20 04:21:00,
2013-08-19 23:26:00,68.5,66.7,30.01,NW,310,0.0,0.0,94,0.00,CLR,,0.00,WeatherDisplay:10.37,2013-08-20 04:26:00,
2013-08-19 23:31:00,68.4,66.6,30.00,NW,310,0.0,0.0,94,0.00,CLR,,0.00,WeatherDisplay:10.37,2013-08-20 04:31:00,
2013-08-19 23:36:00,68.3,66.5,30.00,NW,310,0.0,0.0,94,0.00,CLR,,0.00,WeatherDisplay:10.37,2013-08-20 04:36:00,
2013-08-19 23:41:00,68.3,66.5,30.00,NW,310,0.0,0.0,94,0.00,CLR,,0.00,WeatherDisplay:10.37,2013-08-20 04:41:00,
2013-08-19 23:46:00,68.1,66.3,30.01,NW,310,0.0,0.0,94,0.00,CLR,,0.00,WeatherDisplay:10.37,2013-08-20 04:46:00,
2013-08-19 23:51:00,68.1,66.6,30.01,NW,310,0.0,0.0,95,0.00,CLR,,0.00,WeatherDisplay:10.37,2013-08-20 04:51:00,
2013-08-19 23:56:00,68.1,66.6,30.01,NW,310,0.0,0.0,95,0.00,CLR,,0.00,WeatherDisplay:10.37,2013-08-20 04:56:00,